Wind_Speed
8 7 9 9 10 12 13 13 14 13 11 5 5 3 7 3 8 12 14 12 12 7 5 7 8 7 7 8 7 7 6 2 1 5 7 8 13 12 13 14 15 14 13 16 20 20 19 20 20 20 19 19 20 21 21 19 19 18 16 18 18 16 17 15 14 14 12 11 10 9 10 8 7 8 9 9 9 11 12 12 12 12 12 12 12 11
8 8 10 12 14 14 13 14 16 17 14 7 4 3 7 4 6 12 15 13 12 7 4 6 9 7 5 6 6 7 7 3 2 2 7 6 9 12 12 14 15 13 13 16 18 19 19 20 21 20 19 19 21 22 21 20 19 18 16 18 18 17 17 15 15 14 13 12 10 10 9 9 8 9 10 10 10 11 12 12 11 11 12 12 11 11
8 9 11 14 14 14 14 15 17 16 12 7 4 4 5 4 5 11 15 14 9 6 6 8 8 6 4 4 5 6 7 4 4 7 4 6 7 10 12 12 14 14 14 15 16 18 20 20 21 21 19 19 21 21 21 20 20 19 18 18 17 17 17 15 15 14 13 12 10 9 9 8 9 10 10 11 11 12 11 12 11 11 12 12 11 10
8 9 13 14 12 15 16 15 15 12 10 9 8 7 5 6 6 7 16 17 10 7 11 11 6 4 3 2 3 5 6 5 5 6 3 4 8 6 9 11 14 14 14 16 16 17 19 21 21 20 20 20 21 21 21 21 20 19 19 20 18 17 16 15 16 14 12 12 10 9 8 7 9 10 11 11 11 12 12 12 11 11 12 11 10 9
9 9 13 15 14 16 15 13 13 10 8 9 9 7 5 10 10 6 16 17 11 9 14 13 5 2 4 4 5 7 7 5 5 6 4 6 7 5 4 6 12 14 13 15 17 16 17 20 21 20 20 21 21 21 22 22 21 20 20 21 19 18 17 16 16 15 13 13 11 9 8 7 10 11 12 12 12 13 13 12 11 11 11 11 11 10
11 11 12 14 14 15 14 13 12 9 7 8 7 7 6 10 11 7 16 15 8 7 12 12 6 2 6 8 7 7 9 9 7 7 8 6 5 4 5 4 9 13 13 14 15 16 17 19 20 21 21 21 21 22 22 23 21 21 21 22 20 19 18 16 17 16 14 14 13 10 9 9 11 12 12 12 12 13 13 11 12 12 11 11 11 10
9 11 12 14 15 15 14 11 9 8 7 6 7 8 7 8 11 5 10 10 6 7 13 12 5 4 6 8 10 10 12 12 9 9 10 7 5 6 5 4 7 10 13 14 14 15 16 19 21 21 21 22 22 22 22 22 21 22 23 23 22 20 19 18 18 18 16 16 14 11 10 9 10 11 10 11 11 13 14 12 13 13 12 12 12 12
10 14 12 14 15 12 9 7 7 9 8 6 9 13 9 8 12 10 5 7 6 8 14 14 7 7 5 5 7 9 10 11 11 9 8 9 9 8 6 7 8 6 7 11 14 15 16 18 20 21 21 21 21 22 22 22 22 23 25 23 23 22 20 19 20 19 18 17 16 13 12 10 10 9 9 10 10 11 13 14 14 13 13 12 12 13
12 14 10 9 8 7 7 9 9 11 9 9 13 13 11 9 12 11 8 7 6 6 9 12 11 7 3 5 6 6 6 5 8 10 9 12 13 11 9 9 9 4 1 2 7 10 14 19 21 21 22 21 21 23 22 22 22 23 25 24 23 23 22 20 21 21 19 18 17 15 13 12 11 10 10 10 10 11 12 14 15 14 14 12 12 13
11 10 9 8 7 6 8 11 12 11 9 10 11 8 9 12 11 10 7 5 4 4 6 12 14 6 1 7 7 4 6 3 4 7 10 12 12 12 11 10 9 5 2 0 1 1 7 17 22 21 21 22 21 22 22 22 23 23 25 25 24 24 23 22 23 22 20 18 17 16 15 13 12 11 11 11 11 11 13 14 14 15 15 13 12 13
5 5 8 7 8 8 8 11 12 9 9 9 6 8 9 11 9 6 5 3 3 5 6 12 15 12 4 5 8 5 7 6 6 7 8 10 11 11 10 9 9 7 5 3 1 2 7 12 21 22 21 22 21 22 23 22 22 23 24 25 24 23 23 23 24 24 21 19 18 17 16 14 13 12 12 12 12 12 12 14 14 15 15 14 13 13
5 6 7 7 9 10 9 10 8 5 10 10 6 8 7 7 7 6 6 5 5 6 8 13 12 14 7 5 9 9 10 8 6 6 7 8 9 9 9 9 9 8 8 6 3 4 5 8 15 20 19 21 21 22 23 22 23 23 23 25 24 23 23 23 24 24 22 20 19 18 17 16 14 13 13 13 13 13 12 13 14 14 14 14 13 14
7 8 6 7 10 8 10 7 5 3 9 8 6 8 8 7 7 7 7 8 7 7 9 15 10 9 6 6 10 12 15 11 4 3 6 8 9 8 9 9 8 7 8 9 5 5 4 4 8 16 16 18 20 22 24 23 23 24 24 25 25 24 24 23 23 24 23 22 21 20 19 18 16 14 14 14 13 14 13 13 14 14 14 14 14 14
7 7 6 11 10 8 10 7 6 5 9 9 7 9 8 7 7 7 7 7 7 9 11 13 8 6 6 7 10 10 13 13 10 7 4 6 8 6 6 7 7 7 6 7 6 4 2 3 6 11 16 19 19 21 24 23 24 25 24 25 26 25 24 24 24 23 23 23 22 21 20 19 18 16 15 15 14 14 14 13 13 13 13 13 14 14
8 6 10 13 6 9 12 10 2 3 9 10 7 8 9 8 7 7 7 8 8 9 10 10 7 8 7 7 10 11 11 10 10 10 9 11 8 5 6 5 6 7 5 4 5 3 2 5 6 7 12 17 20 21 23 23 23 25 26 26 27 26 25 25 24 24 24 23 22 22 21 20 20 18 17 16 15 14 15 14 13 13 13 13 13 13
11 9 11 9 4 8 16 11 4 5 7 8 6 8 9 8 8 5 6 8 9 8 6 5 4 8 9 8 11 13 12 11 11 11 12 12 9 5 5 4 5 5 5 5 5 4 3 6 7 9 12 17 21 21 21 23 23 24 26 28 27 26 27 26 25 25 24 24 23 23 22 22 21 20 18 17 16 16 15 15 14 14 13 12 13 13
9 6 13 10 4 10 17 12 5 5 5 6 9 10 9 9 10 6 6 9 9 8 5 7 8 9 9 8 10 12 12 12 12 12 13 12 10 7 4 5 7 5 5 5 5 5 5 8 11 11 13 17 19 18 18 19 22 23 25 27 27 26 25 25 25 25 24 24 24 24 24 23 22 21 20 19 18 17 16 16 15 15 14 13 13 13
4 5 12 11 7 8 9 7 5 8 10 6 6 6 8 10 9 4 2 6 8 8 5 12 15 12 9 6 8 13 13 12 12 13 14 13 11 9 6 4 6 6 6 8 8 7 7 12 14 13 13 14 15 17 15 11 14 20 24 25 26 26 25 25 24 23 24 24 24 24 25 24 22 22 20 19 20 19 18 17 17 16 15 15 14 14
5 5 9 9 9 8 6 3 6 12 14 10 4 6 6 7 6 4 2 4 7 8 5 14 18 12 9 7 9 12 12 12 12 12 13 14 12 10 7 6 9 8 4 7 9 8 8 12 13 14 16 15 13 15 15 10 7 10 15 19 22 24 23 24 24 23 23 24 23 23 25 25 24 22 21 20 20 21 19 19 18 17 17 17 16 15
6 3 7 7 8 8 6 5 7 9 11 10 7 7 8 6 4 6 5 5 5 7 6 11 11 6 6 8 11 12 11 11 12 11 12 15 14 10 8 7 9 9 6 4 5 4 4 9 11 12 15 14 11 10 9 9 7 6 7 11 17 20 20 22 24 24 24 24 23 22 24 25 25 24 23 21 21 22 21 20 19 19 19 19 18 17
4 2 4 6 7 5 6 9 9 8 9 8 6 7 8 5 4 4 7 6 5 6 6 9 7 5 6 7 9 11 12 10 11 12 13 14 13 11 10 8 7 7 7 9 10 8 4 3 8 8 9 7 8 7 7 6 8 10 9 9 12 16 19 20 21 22 23 24 23 23 23 24 25 25 24 22 22 22 22 22 21 20 20 20 21 20
2 2 0 5 7 6 7 8 4 1 2 4 6 7 7 6 4 5 7 8 7 6 2 9 7 6 7 7 7 9 11 11 12 14 13 13 14 12 11 9 8 6 7 10 12 11 11 8 6 6 4 6 7 6 6 6 5 6 7 10 11 12 14 16 19 20 21 22 24 23 23 24 24 25 24 23 23 23 22 23 23 22 21 21 21 22
5 4 4 1 4 3 5 6 1 3 6 7 6 5 5 6 6 7 5 6 7 2 11 10 7 7 6 7 8 8 9 11 13 15 13 12 13 12 10 10 9 9 9 11 10 11 14 14 11 11 10 10 8 5 4 2 2 2 5 11 15 14 14 16 18 19 20 20 23 24 23 23 23 24 24 23 23 24 23 23 23 23 23 22 21 22
6 3 3 3 1 3 4 2 3 3 5 6 5 4 4 2 3 5 3 4 4 3 9 8 7 7 7 7 8 9 11 10 11 13 12 11 12 12 11 10 10 10 10 11 11 11 14 16 15 12 11 11 10 8 6 4 1 3 4 9 14 14 14 17 18 15 17 21 21 22 24 24 24 23 24 24 24 24 24 23 23 24 24 23 22 22
5 2 1 2 3 4 4 3 5 6 5 5 7 5 3 5 8 8 4 3 5 4 3 5 6 7 7 8 9 10 11 11 11 11 10 9 10 11 11 10 9 10 10 11 12 12 12 14 16 14 11 10 10 9 9 9 6 1 1 5 11 12 9 12 16 16 16 19 19 18 20 22 23 24 24 24 23 24 25 24 23 24 25 24 23 23
5 3 2 2 3 3 3 1 4 7 5 4 7 5 5 6 7 7 4 2 4 5 6 7 7 8 8 9 10 10 10 11 11 11 9 9 9 9 10 10 10 10 10 12 12 12 11 12 15 17 13 9 9 9 9 11 13 13 11 10 4 4 7 8 11 13 15 16 15 16 19 21 22 23 24 25 24 23 24 25 24 23 24 25 24 23
4 5 1 2 3 2 2 5 4 3 5 8 10 6 4 6 6 4 4 2 2 3 4 9 12 12 11 11 11 10 10 11 10 9 9 9 9 9 10 10 10 10 10 11 11 11 12 12 14 18 17 13 11 12 13 13 16 18 17 17 16 9 6 5 3 6 10 13 13 15 19 20 20 19 19 20 23 24 23 24 25 25 24 25 26 24
4 4 2 4 2 3 4 6 6 5 5 11 10 5 5 6 6 5 6 2 3 2 2 10 14 15 13 13 13 12 11 10 9 8 8 7 7 8 9 11 12 11 11 11 11 11 12 12 13 15 17 17 15 15 16 15 15 17 15 12 12 10 8 9 6 2 5 11 14 17 17 15 16 19 20 19 20 24 25 24 24 25 25 25 26 25
4 6 3 5 6 3 3 6 5 7 7 1 5 3 3 5 5 8 9 5 5 3 5 9 10 12 13 13 14 13 11 10 8 8 8 8 7 8 8 10 11 12 12 12 11 12 12 11 12 14 17 18 17 16 15 15 15 15 13 10 9 7 6 7 8 8 5 4 10 14 14 12 15 21 24 23 23 22 24 26 25 25 25 25 25 26
2 4 5 3 3 2 3 4 5 6 6 5 3 2 1 4 5 7 7 4 4 4 11 12 10 11 11 11 13 13 12 11 8 6 7 8 8 7 8 9 10 11 12 12 11 11 11 12 13 15 16 17 18 17 14 14 15 14 13 11 10 10 7 4 6 9 8 6 5 7 9 11 14 16 22 25 24 22 22 24 25 24 25 25 25 25
1 2 5 5 5 4 5 4 4 6 4 3 5 3 2 5 5 3 4 2 1 5 11 13 12 10 9 11 12 11 10 10 7 6 6 6 6 6 8 9 9 10 10 11 11 11 11 12 13 15 16 16 17 16 15 15 15 15 14 12 11 12 11 7 7 9 8 5 4 6 6 9 13 15 16 19 21 21 21 22 23 24 24 24 25 24
3 2 1 3 5 6 7 8 8 8 6 7 10 7 5 7 6 4 4 3 3 6 9 12 9 8 10 13 14 13 11 10 8 7 6 5 4 5 7 7 8 9 9 10 11 10 10 11 13 14 15 15 15 15 16 15 14 14 14 14 13 13 14 12 10 10 10 7 4 6 7 8 11 13 13 14 16 17 18 19 21 22 21 21 22 24
3 3 2 3 5 7 8 7 6 6 6 7 10 11 10 8 7 7 7 5 3 4 6 9 8 7 10 12 11 11 13 12 9 8 5 4 3 4 7 7 6 7 9 9 10 10 11 11 13 14 14 14 14 15 15 14 14 14 12 12 12 13 14 15 14 14 14 12 9 8 7 7 9 11 11 13 15 15 15 17 17 16 18 25 24 20
1 4 4 2 4 7 7 7 3 5 6 4 3 7 12 12 10 10 8 6 4 3 2 5 12 13 11 11 10 9 10 12 10 8 8 5 2 4 7 8 6 7 8 9 9 10 11 11 12 13 13 13 13 14 14 13 13 13 13 13 13 13 14 16 17 17 17 16 15 15 14 11 9 10 12 13 14 15 15 18 18 14 15 21 26 24
2 3 5 3 5 6 3 6 5 5 3 2 7 3 2 5 6 6 3 4 6 6 5 7 14 15 11 8 8 7 7 11 10 9 9 8 4 2 3 6 7 7 7 8 8 9 10 12 12 13 12 12 13 13 14 13 12 12 13 14 14 14 13 14 16 17 17 17 17 18 18 17 14 14 14 14 13 14 13 16 18 17 19 21 20 20
3 3 4 4 4 5 3 5 5 1 3 6 7 7 6 5 2 3 4 3 4 6 7 9 10 11 9 9 10 9 7 7 6 8 10 8 6 2 3 4 8 8 7 7 8 9 10 11 12 12 12 12 12 13 13 13 12 12 12 13 14 14 14 13 14 16 16 16 16 17 16 16 16 16 16 15 12 13 12 10 15 19 20 21 20 21
5 3 3 3 3 5 6 5 5 4 4 5 5 4 2 2 2 3 3 3 4 4 6 10 10 9 9 9 10 10 7 3 2 6 10 10 9 5 4 6 7 5 6 7 8 8 10 12 12 12 11 10 11 13 13 11 11 11 11 12 13 13 14 14 14 15 16 16 16 16 14 14 15 15 15 15 11 9 9 8 10 15 18 20 20 19
4 3 3 3 3 4 5 6 6 6 5 5 7 7 4 3 4 2 4 4 8 7 6 10 12 10 8 7 8 9 6 3 3 5 8 10 11 9 4 3 3 4 6 7 8 8 10 12 12 12 11 10 11 13 13 11 9 10 11 11 12 12 12 13 14 14 15 15 16 17 14 13 14 13 13 13 9 8 9 10 9 10 14 18 19 19
3 3 3 4 4 3 4 6 6 4 1 4 9 10 7 6 6 4 4 5 7 7 6 8 10 9 8 8 8 7 3 4 4 3 4 7 10 9 5 3 4 6 7 7 8 10 12 12 13 13 12 11 12 13 14 11 9 10 10 10 11 10 10 11 12 13 13 13 14 15 15 13 12 11 10 11 9 8 9 11 10 9 11 14 16 16
3 3 4 5 5 4 4 5 4 1 3 7 9 8 7 6 5 5 5 4 8 8 6 7 9 7 7 8 7 5 3 1 4 5 6 7 9 8 6 4 4 6 7 8 9 12 12 12 12 12 12 12 13 14 14 11 10 10 10 10 10 10 10 10 10 10 11 12 12 13 14 13 12 12 12 12 12 11 11 12 11 10 11 12 13 12
4 4 5 6 6 6 6 6 3 2 5 7 8 7 6 5 4 4 2 3 8 8 4 6 9 8 7 7 5 3 3 5 5 5 5 6 7 7 6 5 4 5 6 8 10 11 10 9 10 11 12 13 14 14 13 12 11 11 11 10 10 10 10 10 9 9 9 10 11 11 12 12 13 14 14 13 13 14 14 13 11 11 12 12 12 11
4 4 5 6 6 6 5 6 5 2 4 4 7 7 4 1 2 2 3 4 6 8 6 5 8 8 6 5 3 3 6 6 5 5 6 5 5 5 5 5 5 6 6 7 8 8 8 9 10 11 12 12 14 14 13 13 14 13 12 11 11 11 11 10 9 9 9 9 9 9 10 12 13 14 13 12 13 14 13 12 11 11 14 14 13 12
3 3 5 6 6 5 5 6 6 2 2 4 6 5 2 1 2 4 6 6 7 8 7 5 7 7 4 4 3 3 4 4 3 4 4 3 3 3 4 5 6 5 6 7 8 9 10 10 10 11 12 12 14 14 14 14 14 14 13 13 13 13 11 10 10 10 9 8 9 9 10 10 12 13 13 12 12 12 13 12 12 12 14 14 13 12
3 4 4 3 3 4 5 4 1 2 4 5 4 3 3 4 5 5 5 6 6 6 5 4 5 5 3 3 3 2 2 1 1 1 2 1 1 2 3 5 5 6 7 7 9 10 11 11 11 12 12 13 13 14 14 15 14 14 14 14 14 13 12 11 12 11 9 9 9 10 10 10 11 13 14 13 12 12 12 12 11 11 12 12 13 13
3 2 1 1 2 4 2 2 3 2 4 4 4 5 7 7 6 4 4 5 4 4 4 4 5 6 4 2 3 2 1 1 1 0 1 0 1 2 4 5 6 6 7 8 9 10 10 11 12 13 13 13 13 14 14 15 15 15 15 15 15 14 14 14 13 11 10 11 11 10 10 11 12 12 11 11 12 13 13 11 8 7 9 11 12 12
3 1 1 1 3 4 3 2 3 3 3 4 4 6 8 7 5 4 2 2 2 3 4 3 3 6 6 4 2 2 2 1 0 1 1 2 3 4 5 6 6 7 8 8 9 9 10 11 12 12 13 13 14 14 14 14 15 16 17 17 16 15 16 16 15 13 12 12 11 10 10 11 12 11 11 12 11 11 12 12 9 7 6 7 9 11
7 6 4 3 4 4 3 3 4 3 3 4 4 5 7 6 5 4 2 1 2 2 4 4 4 4 5 5 4 3 3 2 2 2 1 2 3 4 5 6 6 7 8 8 9 9 10 10 11 12 14 14 14 14 15 15 16 17 18 18 17 16 17 17 16 14 13 11 11 11 11 10 11 12 12 11 10 9 11 13 11 8 6 6 8 11
3 5 6 6 6 6 3 2 2 1 2 3 3 3 5 6 6 4 3 3 3 2 3 4 4 4 4 5 5 4 3 3 3 2 1 1 2 3 5 6 7 8 9 9 10 10 10 10 11 13 14 15 16 15 15 16 16 17 18 19 18 18 18 17 16 15 13 12 12 11 10 10 11 12 11 11 11 11 11 11 11 11 10 10 11 13
2 2 4 4 5 7 6 3 2 4 5 4 4 4 2 4 6 6 5 5 5 4 4 3 3 4 4 4 6 6 5 4 2 2 3 2 2 3 4 6 7 9 10 10 10 10 10 11 12 13 15 16 17 17 17 17 17 17 17 18 19 19 18 18 17 16 15 13 12 11 11 10 10 10 11 12 13 13 12 12 12 13 13 12 13 14
2 3 3 3 5 5 2 2 3 2 3 2 2 3 4 4 4 6 8 10 9 9 9 8 6 5 5 3 3 4 5 4 2 2 3 3 3 3 4 5 7 9 10 10 11 11 12 12 13 14 15 16 18 18 19 18 18 17 17 17 18 18 18 18 17 17 16 14 12 11 11 10 10 10 10 12 13 14 15 14 14 14 15 15 16 15
2 2 3 3 5 3 3 6 6 3 2 3 3 4 4 5 6 8 7 9 11 10 9 8 8 9 8 5 4 4 4 4 4 3 4 5 4 4 5 6 7 8 10 11 12 12 13 13 14 15 16 17 18 19 19 20 19 18 18 17 17 18 19 18 18 18 17 15 13 12 10 10 11 11 11 11 13 14 15 15 14 14 16 17 17 15
Wind_Direction
205 213 212 219 221 218 216 223 240 241 239 234 128 225 256 137 117 135 139 144 142 122 101 113 119 131 146 151 153 128 122 170 54 341 282 192 165 170 177 166 161 167 165 166 166 164 165 161 159 159 156 154 153 150 150 152 152 155 156 148 152 157 152 153 156 158 160 161 166 162 159 164 156 142 136 139 138 130 129 132 135 136 137 137 139 144
205 226 221 219 224 226 222 220 235 242 240 236 152 210 253 209 140 134 138 146 152 137 106 118 121 132 146 152 155 129 132 147 119 212 277 256 185 172 178 166 160 167 165 167 167 163 167 164 159 159 160 159 153 150 154 156 155 159 159 153 158 160 157 160 162 163 164 164 167 166 169 165 156 154 148 148 140 128 131 136 136 139 140 139 143 146
208 230 228 223 224 228 234 222 226 243 245 237 179 171 254 236 115 119 132 142 160 148 134 147 134 137 157 156 156 133 137 140 166 200 237 289 237 183 176 168 163 170 167 168 169 167 170 165 160 161 164 162 155 155 159 159 158 160 160 158 162 161 161 166 165 166 165 166 170 166 172 164 153 161 157 150 140 129 131 137 140 146 144 142 145 145
210 225 228 230 225 222 234 227 222 237 243 240 206 184 210 196 169 140 137 149 177 156 141 152 135 133 165 178 185 159 155 150 167 187 174 263 262 212 182 173 170 174 167 168 170 169 171 167 163 164 167 164 158 160 163 163 162 162 162 162 165 165 164 169 166 168 167 167 171 166 170 162 146 158 157 151 147 139 138 141 146 151 147 144 148 148
224 218 217 228 229 222 229 230 222 224 231 238 222 205 207 205 215 169 139 156 170 142 139 142 113 112 182 200 211 184 173 164 150 147 159 235 271 287 245 190 179 178 168 170 172 172 172 169 166 166 170 168 163 165 166 167 168 164 163 164 168 168 166 170 168 168 168 167 171 166 163 150 139 150 151 148 152 150 148 147 152 155 151 149 151 154
230 223 206 219 231 221 225 228 216 210 227 228 205 216 219 216 228 155 139 159 152 132 153 148 124 169 196 198 202 187 172 166 161 155 163 208 257 272 269 243 196 182 170 173 174 175 174 170 168 168 173 173 168 170 169 170 172 166 165 166 169 171 169 171 170 169 169 169 174 172 166 156 148 154 157 156 157 157 157 155 156 157 156 154 153 154
234 228 204 214 224 213 222 231 206 196 230 226 189 210 212 207 235 207 151 176 173 152 174 176 147 139 182 202 198 186 169 162 167 170 162 173 219 223 220 235 218 187 174 177 176 178 178 172 171 169 176 179 172 173 173 172 174 167 166 168 169 172 172 172 172 171 171 171 176 177 174 170 161 161 166 168 165 162 162 157 154 157 161 158 153 155
229 228 210 215 218 201 213 229 201 199 220 231 201 206 202 193 229 233 195 218 210 148 171 187 151 122 170 197 180 166 156 156 164 171 165 166 194 212 205 204 214 204 180 181 182 182 180 174 174 173 178 183 175 174 175 175 174 168 167 170 170 172 174 174 175 173 173 175 177 180 179 176 173 170 171 172 164 157 157 156 155 158 163 161 156 159
220 224 211 210 205 183 210 221 217 212 209 231 224 207 193 198 231 233 213 226 216 156 171 179 143 118 160 135 97 106 126 160 172 174 185 177 178 191 196 195 198 206 203 189 189 187 183 176 176 177 180 184 180 176 177 177 173 168 168 171 172 172 174 176 177 176 177 178 177 181 182 180 182 177 172 173 164 153 152 156 159 160 162 164 162 163
215 206 188 201 209 196 213 220 226 225 213 230 242 229 196 199 229 240 229 231 234 221 190 175 159 138 167 133 116 130 144 172 196 186 195 183 170 174 182 187 182 177 171 57 357 265 211 188 179 180 183 187 183 175 177 179 173 170 170 173 175 175 175 177 179 178 179 180 178 182 184 184 187 180 171 175 168 159 156 155 159 160 161 166 165 166
219 172 165 199 225 219 220 220 223 224 218 215 228 246 211 188 213 234 245 258 253 246 221 204 181 147 139 144 143 162 145 157 194 194 194 180 170 172 175 182 174 164 177 186 175 291 266 219 187 183 187 189 185 176 177 179 175 173 173 175 178 178 177 179 180 179 180 181 181 183 185 186 188 181 174 176 172 167 163 158 160 162 163 169 172 172
221 206 187 200 214 231 247 223 209 209 223 214 192 227 201 164 206 211 212 231 228 224 225 235 202 140 136 154 141 140 135 155 196 181 180 167 163 174 177 186 177 163 174 174 171 201 255 251 195 184 189 193 187 175 177 181 176 174 175 176 179 180 181 181 180 181 181 182 184 185 186 187 188 183 179 180 177 176 175 169 168 167 168 173 177 177
215 212 194 217 196 219 265 222 176 204 228 220 184 212 204 172 203 205 202 219 221 220 221 232 215 127 108 116 120 126 135 152 177 175 194 167 156 172 175 183 176 161 165 159 172 200 207 256 198 179 189 202 194 176 176 183 178 175 176 177 180 182 183 184 183 183 183 184 186 187 187 188 189 187 184 185 183 182 184 181 176 173 175 178 177 179
206 177 182 240 193 182 259 225 166 196 215 219 196 197 206 188 191 202 213 217 215 223 217 217 205 122 113 119 119 118 121 133 143 146 151 120 128 157 161 173 173 158 152 155 176 193 174 251 220 182 186 201 202 184 179 185 180 175 177 178 181 184 185 185 185 186 186 187 188 187 188 189 190 190 188 188 187 186 188 188 184 181 182 182 181 183
206 189 188 235 192 159 241 248 211 223 206 212 214 200 207 213 206 200 210 210 211 222 204 195 183 138 141 144 131 122 109 108 118 120 102 93 103 131 141 163 173 157 144 153 172 156 175 246 239 211 199 197 202 197 187 187 181 173 175 179 182 184 186 186 187 188 189 189 189 190 190 189 190 191 191 192 192 191 192 192 192 190 187 186 187 187
216 223 171 199 225 186 223 246 303 289 218 189 207 218 214 226 234 227 228 220 214 218 191 163 130 112 126 143 134 126 123 119 112 110 107 104 110 119 117 128 144 154 160 163 171 166 197 238 228 223 218 200 199 203 194 189 185 176 173 179 184 185 186 187 188 190 191 191 191 191 191 192 192 192 192 194 195 194 194 196 196 196 193 190 189 189
219 202 140 153 223 208 216 233 243 265 255 180 191 223 227 234 246 247 246 240 228 220 180 120 105 112 131 147 135 124 120 116 113 113 107 100 105 110 105 120 133 147 158 151 165 184 200 226 221 218 222 204 194 204 205 191 189 185 175 176 183 187 188 189 190 191 192 193 193 192 192 192 192 193 195 195 195 196 197 199 199 197 197 196 192 191
245 141 132 160 199 197 213 254 253 245 258 226 188 232 241 235 251 270 271 250 228 219 175 130 134 146 156 157 139 132 123 113 111 109 105 100 95 93 90 88 97 118 145 147 160 186 206 221 214 203 218 215 194 201 213 199 192 193 183 178 182 187 190 190 191 191 193 194 194 195 194 194 194 195 197 197 196 197 197 198 199 199 199 197 195 196
278 141 141 180 198 184 188 258 253 242 254 265 301 310 267 234 233 215 242 263 220 215 184 140 144 153 156 152 145 139 131 122 114 103 98 96 85 76 73 46 44 63 115 151 156 172 197 214 209 190 199 211 202 202 211 213 204 194 188 182 183 190 195 194 193 192 194 196 196 197 197 196 196 196 199 201 198 197 198 198 198 200 201 197 197 201
281 157 144 184 184 166 174 211 226 228 240 255 272 262 240 245 246 201 213 265 239 224 198 148 143 139 127 135 141 137 134 126 114 102 92 87 81 70 61 38 29 39 44 75 107 128 178 200 200 191 194 196 193 194 196 205 209 204 203 186 183 196 203 202 200 195 195 196 196 199 199 198 198 197 200 203 200 199 201 201 200 200 201 198 199 202
278 193 147 167 166 160 183 203 212 209 213 222 230 229 220 234 274 224 211 231 255 252 204 146 120 93 103 126 141 134 128 124 110 100 91 84 83 77 64 45 29 43 53 50 48 36 25 169 173 183 193 169 150 147 123 131 176 194 204 189 186 202 209 214 214 205 199 199 199 200 199 200 201 199 200 203 203 204 203 203 202 202 202 200 199 201
339 295 194 156 174 202 189 178 196 258 280 255 231 225 217 210 236 240 212 210 241 276 134 128 122 107 112 128 148 140 123 119 109 98 94 89 86 81 72 63 49 44 45 42 41 34 28 41 81 90 89 84 95 120 105 95 124 151 175 187 193 199 208 224 229 222 214 204 201 204 201 200 203 202 202 203 204 206 206 206 205 205 205 203 202 202
17 315 309 179 177 184 139 128 99 355 336 306 266 237 223 207 220 233 221 220 229 140 92 110 125 116 125 134 140 132 110 106 103 98 99 96 88 80 72 69 61 48 39 41 43 36 31 31 37 49 58 60 63 76 84 101 151 134 177 201 206 204 209 218 219 233 247 231 209 207 206 202 202 203 204 205 205 206 207 207 207 207 208 206 205 204
351 283 312 353 124 115 102 134 253 285 303 280 247 244 252 243 295 281 302 340 279 160 101 111 130 131 150 143 123 116 107 103 98 95 100 102 99 96 83 68 59 54 49 50 50 40 34 30 28 39 55 57 62 69 70 72 210 231 227 226 222 219 226 224 211 220 257 255 231 216 213 210 206 205 205 206 208 208 208 209 207 207 209 209 207 206
325 263 253 269 204 171 157 192 220 226 249 242 213 227 308 357 352 335 344 359 290 283 54 90 125 134 145 138 126 125 123 114 97 91 95 94 95 99 94 83 70 60 52 54 54 45 37 30 26 34 53 66 64 62 65 60 49 52 262 258 238 233 250 249 228 217 230 250 252 234 224 223 216 210 209 209 210 210 210 211 209 208 208 210 211 207
325 318 307 265 236 197 176 254 225 199 212 250 239 253 321 329 329 339 338 301 284 331 38 83 126 136 139 138 130 126 124 115 105 102 101 92 87 86 85 83 79 69 57 54 57 52 45 37 31 32 42 64 62 49 55 53 45 45 43 38 34 265 281 268 244 231 226 238 253 244 235 240 237 223 214 212 214 214 214 213 213 211 208 210 214 212
320 312 6 76 340 349 17 329 313 179 191 218 231 247 283 294 310 329 312 324 17 0 54 113 136 144 148 146 134 125 121 113 108 110 106 103 103 96 91 87 82 79 70 60 58 57 53 49 42 35 37 50 56 44 37 41 50 51 44 48 62 57 344 314 254 239 238 234 237 233 231 243 255 252 242 230 222 220 219 217 216 216 212 209 212 215
308 290 148 139 252 299 355 337 340 344 267 217 206 213 233 269 317 299 264 299 37 351 125 135 144 149 151 148 137 126 120 119 119 116 105 101 99 93 96 98 88 81 77 69 62 58 55 54 50 44 42 45 52 49 34 31 50 58 48 43 58 61 30 17 32 15 265 246 240 236 233 238 248 254 265 272 257 236 226 223 221 219 217 211 209 214
306 284 255 200 215 230 319 321 317 330 335 125 133 111 218 244 276 268 263 299 5 28 138 151 152 144 144 148 141 128 117 113 112 114 114 106 97 89 85 86 82 78 75 71 66 61 57 55 51 50 51 50 50 48 38 31 42 57 60 51 42 39 28 23 32 33 13 286 255 246 245 251 243 234 239 258 272 261 241 232 229 224 220 215 210 212
302 304 314 288 258 238 259 290 291 306 355 49 102 91 5 276 265 258 269 316 20 104 145 152 147 138 142 146 140 127 113 102 90 101 120 112 103 104 94 78 69 69 71 68 65 62 61 58 52 47 51 56 53 45 39 39 43 49 56 55 47 35 10 351 24 34 36 18 310 254 247 265 265 249 238 239 252 266 259 246 241 235 227 220 215 214
228 330 352 324 300 270 227 226 265 279 307 303 257 228 236 271 270 264 274 310 77 148 150 144 143 146 136 124 123 122 119 116 106 97 98 94 96 99 91 80 69 61 64 67 62 57 57 56 52 46 44 52 55 49 41 40 41 44 43 36 38 35 19 9 26 30 35 31 328 282 275 280 273 266 258 246 247 261 267 259 253 251 244 230 220 218
238 255 316 266 270 263 225 208 228 246 254 262 260 245 219 232 240 233 227 211 198 196 168 149 150 154 140 133 131 128 131 133 127 112 86 57 58 79 74 70 66 55 53 61 60 53 50 48 47 44 40 43 51 52 48 43 42 46 45 34 27 24 19 22 31 26 24 28 354 312 311 314 301 288 279 269 266 275 283 274 261 262 272 266 240 224
260 269 246 208 243 250 217 197 223 243 241 247 249 237 221 218 230 234 221 201 214 245 205 169 149 132 135 143 142 138 141 142 142 145 122 65 53 98 93 74 59 51 48 48 54 55 48 42 42 39 35 36 42 48 50 47 44 40 36 36 32 24 18 20 27 27 21 21 21 11 359 346 334 326 314 298 292 300 306 297 282 275 291 302 292 263
249 277 274 238 256 249 194 156 189 239 236 255 269 227 214 206 213 226 219 183 128 27 354 139 137 142 153 157 158 163 154 138 135 145 140 126 129 129 111 93 67 54 53 43 44 52 46 39 40 36 29 30 33 39 40 40 45 37 23 27 34 30 25 20 19 23 21 19 23 22 17 11 359 351 346 333 320 315 302 293 294 280 271 291 304 301
196 235 260 262 267 265 166 147 203 237 220 69 45 39 178 181 203 217 192 152 131 97 78 118 137 151 166 157 142 143 138 134 138 146 148 150 154 149 125 114 93 62 53 46 40 49 46 36 35 30 24 24 28 32 29 26 35 37 27 26 26 23 29 28 22 21 19 18 19 17 14 12 7 2 358 351 348 345 321 288 279 269 256 260 268 272
294 251 252 251 252 265 236 188 204 210 96 96 76 57 61 72 95 134 118 112 114 112 121 130 136 147 151 134 121 122 136 152 151 140 142 148 142 124 339 61 83 62 47 45 36 47 49 34 28 26 18 15 22 28 24 18 22 30 31 29 22 16 22 28 25 20 16 16 15 12 13 11 9 8 4 356 351 355 348 304 271 263 259 256 251 247
301 315 301 267 232 246 256 230 184 145 140 146 129 119 134 125 128 179 202 168 146 148 145 143 152 161 154 140 128 120 122 132 126 138 148 146 133 115 22 31 63 56 44 39 23 37 49 31 17 16 10 8 20 23 13 7 16 25 29 26 20 18 21 23 24 18 11 9 7 5 8 9 7 9 7 1 352 339 338 321 283 268 262 258 257 257
267 299 322 305 254 234 255 254 220 202 209 188 150 135 130 102 101 159 246 199 172 187 178 159 169 174 159 142 122 108 110 156 188 179 164 143 129 128 121 79 75 49 37 25 359 10 33 22 6 0 355 358 18 16 358 354 9 21 27 25 17 17 21 22 22 16 9 7 2 356 356 2 7 8 1 356 349 326 319 316 297 280 272 265 259 259
254 264 278 277 266 250 252 256 243 238 291 101 114 112 103 92 97 133 224 205 165 160 158 160 170 170 155 143 129 122 160 204 172 118 105 111 114 119 116 80 45 25 12 357 350 5 15 5 351 345 342 350 6 0 345 346 6 13 17 18 10 10 18 21 19 12 7 6 1 351 347 351 0 1 349 339 335 328 322 315 304 293 286 277 270 269
235 240 236 240 252 251 242 248 252 245 86 104 110 108 109 114 130 181 210 182 143 141 153 160 157 150 134 126 129 150 195 180 103 88 71 77 90 92 77 48 19 6 352 344 358 9 2 345 337 334 336 346 352 343 334 343 1 3 3 5 360 0 10 14 13 11 7 5 0 350 344 345 349 347 340 333 328 326 326 324 320 313 305 292 280 277
218 221 228 235 240 238 233 244 256 91 102 124 130 119 117 136 180 204 198 118 124 131 143 156 149 139 125 126 146 164 115 89 90 92 73 63 68 68 60 47 23 10 358 352 359 358 343 335 338 336 335 338 335 329 332 345 352 351 351 353 350 349 354 359 2 4 3 0 358 351 344 342 341 339 336 334 332 329 328 328 331 326 310 294 279 275
219 214 222 230 240 243 236 240 236 166 123 142 131 108 100 199 215 147 104 93 107 109 100 118 130 126 126 141 148 89 86 91 86 76 64 49 48 48 42 39 31 18 5 352 348 347 342 345 346 338 333 331 329 331 338 341 340 341 341 340 340 339 339 342 346 349 351 352 352 351 346 339 333 331 330 328 326 327 327 323 322 318 306 292 280 273
227 227 226 219 228 241 239 244 248 205 145 156 135 106 38 316 115 107 104 97 92 92 85 89 115 130 146 151 130 86 84 85 58 58 64 44 34 35 31 37 36 16 357 345 344 352 356 350 342 335 332 331 331 335 338 334 331 331 329 328 330 330 328 332 337 335 335 342 348 348 342 333 328 326 323 317 313 312 316 319 319 314 306 300 293 282
226 239 252 235 230 243 239 240 259 121 131 137 134 112 71 85 109 115 112 111 110 112 108 99 113 132 144 129 114 99 80 69 19 46 98 77 20 21 32 34 24 5 355 350 351 356 353 342 336 334 330 330 332 333 331 328 325 321 317 317 321 322 323 327 329 324 323 334 341 340 334 329 324 319 315 319 322 313 306 310 317 317 313 309 304 295
211 200 293 312 280 288 301 65 80 117 145 133 117 113 108 109 111 99 101 126 139 131 128 135 139 141 140 117 104 113 233 238 231 176 77 352 334 19 23 13 3 0 358 354 353 354 346 334 330 329 326 328 331 329 326 324 319 315 315 317 319 320 319 318 317 316 322 329 329 329 329 325 320 316 315 320 324 316 306 298 292 301 318 323 317 309
230 202 31 307 268 280 277 178 152 160 160 142 119 112 114 120 122 110 113 142 127 113 122 129 136 143 146 146 151 186 236 259 265 286 333 346 346 352 355 353 355 355 352 349 348 345 336 328 325 324 324 326 328 327 324 322 318 317 319 320 318 314 311 311 313 316 320 323 322 323 326 323 318 319 319 314 311 314 317 314 296 275 293 319 324 321
214 214 221 240 243 245 230 182 161 162 165 169 166 141 136 144 148 148 157 117 79 110 135 125 120 133 143 156 174 193 216 234 252 269 336 0 328 324 335 342 345 343 340 339 336 331 327 324 322 323 323 322 324 324 321 319 318 316 316 316 314 311 311 311 312 311 310 312 315 316 318 320 319 315 312 311 314 317 318 317 315 308 309 322 327 326
203 209 215 221 228 235 231 146 118 149 188 203 213 183 159 161 160 151 132 104 98 108 118 125 147 164 177 187 184 187 212 229 244 271 281 289 301 320 330 330 331 332 329 326 325 324 323 321 321 321 319 318 319 319 316 315 314 312 312 312 311 310 309 306 302 300 300 304 310 312 310 311 312 310 311 317 321 318 311 310 313 316 317 319 320 323
103 209 229 221 225 239 245 245 235 226 214 215 237 253 231 184 176 176 173 162 155 158 161 172 191 206 216 200 173 175 201 223 237 252 259 279 311 313 310 316 321 320 318 318 320 322 322 320 319 316 314 313 314 314 312 311 310 310 310 310 309 307 306 303 300 297 295 296 301 305 306 306 305 309 316 320 317 313 310 305 299 295 294 296 298 304
205 253 267 250 233 232 235 16 1 294 242 233 260 280 287 275 240 222 202 185 183 192 192 188 194 216 231 228 190 191 208 215 217 248 276 287 289 291 301 311 313 311 312 318 321 322 321 319 316 312 311 311 311 310 310 309 309 309 309 308 308 306 302 300 299 295 293 294 297 299 304 310 313 314 313 310 308 306 304 301 296 290 286 288 293 298
316 335 348 294 267 287 33 47 37 11 312 320 331 312 299 297 295 288 259 205 195 210 214 203 205 213 213 209 217 229 232 226 222 241 268 279 292 306 302 298 302 309 317 320 320 318 315 314 313 312 312 313 312 311 310 309 308 308 307 306 306 304 302 299 296 291 288 287 287 291 300 310 314 313 306 302 302 302 300 301 301 296 291 290 294 298
Height
740 753 757 755 751 743 738 737 734 729 728 732 745 758 753 755 769 764 761 759 756 774 784 779 784 786 784 786 785 781 781 785 787 791 788 778 775 777 775 776 779 781 780 779 781 784 786 789 792 795 797 800 803 806 809 811 814 816 817 819 821 822 824 826 827 829 830 832 833 834 836 837 838 840 841 842 844 846 847 848 848 849 850 850 851 852
741 756 753 743 739 733 730 731 731 728 726 731 745 758 752 752 759 755 759 760 753 772 786 780 783 787 783 784 784 780 784 788 789 794 796 786 778 776 775 776 779 779 778 779 781 784 786 789 792 795 798 800 803 806 809 811 813 816 817 819 821 822 824 825 827 828 829 831 832 834 835 836 838 839 841 842 843 845 846 847 848 848 849 850 851 852
751 754 744 732 728 728 727 726 728 729 728 733 744 761 765 754 752 755 759 760 755 768 786 784 786 790 783 781 782 782 785 788 787 789 794 794 787 780 777 777 779 780 780 781 782 783 786 788 791 795 797 799 803 806 809 811 813 815 817 819 820 822 824 825 827 828 829 831 832 834 835 836 838 839 840 842 843 845 845 847 848 848 849 850 851 852
757 748 734 726 723 728 730 725 726 731 733 734 739 757 768 756 754 762 765 765 757 760 777 783 788 793 788 785 784 783 783 784 786 788 789 794 793 784 777 776 778 780 782 782 783 783 785 788 791 794 797 799 802 806 808 810 813 814 816 818 820 821 823 825 826 828 829 830 832 833 835 836 837 838 840 841 842 844 845 846 848 848 849 850 851 852
746 734 723 723 724 726 731 728 728 736 740 735 732 743 754 749 745 746 754 762 759 759 767 779 797 802 793 795 791 782 784 785 787 790 792 793 791 786 780 777 777 777 780 782 783 783 784 787 791 794 797 799 801 805 807 809 811 813 815 817 819 821 823 824 826 827 828 830 832 833 835 836 837 838 839 841 842 843 845 846 847 848 848 849 851 852
736 721 716 725 727 724 731 732 728 734 743 740 734 735 740 742 736 732 739 753 772 785 773 772 806 815 795 794 794 784 787 791 790 792 795 795 792 790 787 783 779 776 778 780 781 783 784 786 791 794 796 798 801 803 806 808 810 812 814 816 819 820 822 824 825 827 829 830 831 833 834 836 837 838 839 840 842 843 844 845 847 848 848 849 851 852
728 716 714 725 727 726 732 732 725 730 745 749 737 729 731 736 737 736 737 747 771 787 772 761 789 810 800 793 790 785 788 792 794 795 795 796 794 791 790 786 781 778 778 779 781 782 783 786 789 793 796 797 800 803 805 808 809 811 814 815 818 820 821 823 825 826 828 829 831 832 834 835 836 837 838 840 841 842 843 845 846 847 848 849 850 852
724 720 719 721 723 728 736 737 728 727 746 750 731 724 731 737 741 740 739 746 748 756 768 763 768 798 811 798 786 785 792 796 796 796 796 799 798 792 789 786 783 781 779 780 781 781 782 785 788 792 795 797 799 802 804 806 809 810 813 815 817 819 821 822 824 826 827 829 830 832 833 835 836 837 838 839 840 841 843 844 845 847 848 849 850 852
720 724 724 722 728 736 738 736 726 724 741 740 721 719 727 734 739 736 738 745 737 746 774 768 760 797 817 799 792 795 798 804 801 795 795 797 798 794 789 786 783 782 781 780 781 780 781 784 788 791 794 796 798 801 803 805 808 810 812 815 816 818 820 821 823 825 827 828 830 831 833 834 835 837 838 839 840 841 842 843 845 846 847 849 850 852
716 716 717 723 734 737 733 727 720 724 734 726 715 718 723 731 736 735 739 743 743 758 775 761 756 796 814 798 803 809 803 806 803 794 790 789 790 791 788 785 783 783 783 782 781 780 782 783 786 790 793 795 797 799 803 804 807 810 812 814 816 817 819 820 822 824 826 828 829 831 832 834 835 836 837 839 840 841 842 843 845 846 847 848 849 851
711 707 711 722 729 726 723 721 717 719 722 717 721 727 729 735 737 741 744 745 765 780 770 751 745 777 807 802 801 805 798 798 797 792 787 783 784 786 786 784 784 785 784 783 783 782 783 783 784 789 792 793 795 798 801 803 805 809 811 813 815 817 818 819 821 823 825 827 829 830 832 833 834 835 837 838 839 841 842 843 844 845 846 847 848 850
719 720 720 720 720 718 721 721 716 716 716 718 729 735 742 752 752 758 759 759 786 793 767 747 738 761 799 799 788 788 789 791 791 787 786 784 784 783 783 784 782 783 783 783 784 783 783 783 783 786 790 792 794 796 799 802 804 807 810 813 815 817 818 819 821 822 824 826 828 830 831 832 834 835 836 837 839 840 841 842 843 844 845 846 847 849
732 729 724 721 717 718 727 730 729 728 724 725 736 744 757 771 776 782 780 777 787 781 758 743 742 769 794 785 777 780 785 793 793 788 785 784 784 782 781 782 780 780 781 781 783 783 782 782 782 785 790 792 792 794 797 800 802 805 809 811 813 815 817 819 820 821 823 825 826 829 830 832 833 834 835 837 838 839 840 842 842 843 844 845 846 848
746 735 730 731 724 721 729 737 745 745 737 737 741 749 763 776 790 801 791 783 782 769 750 735 746 785 800 782 774 776 777 784 788 787 783 780 782 782 780 780 779 779 780 780 781 783 783 783 783 785 789 792 792 793 796 798 800 803 806 809 812 814 816 818 819 821 822 824 825 827 829 831 833 834 835 836 837 839 840 841 842 843 843 844 845 846
758 753 740 735 728 727 731 729 734 738 736 737 730 737 755 759 773 789 782 779 778 763 747 740 754 788 803 787 773 772 773 774 776 780 781 783 782 780 780 780 780 780 781 782 782 783 784 784 785 786 788 791 792 792 794 796 799 801 804 808 810 812 814 816 818 820 821 823 824 826 828 830 831 833 834 836 837 838 839 840 841 842 843 843 844 845
751 749 730 726 725 727 733 725 722 731 739 735 728 739 752 742 742 756 756 753 756 756 754 756 766 776 782 776 763 766 775 773 776 780 781 786 784 780 783 783 781 782 781 782 783 783 783 784 786 788 789 791 791 791 793 795 797 800 802 806 808 811 812 814 816 818 820 822 823 825 826 828 830 832 833 835 836 837 838 839 840 841 842 842 843 844
746 742 724 728 732 725 728 726 720 733 742 737 740 748 739 723 726 744 752 740 740 759 765 767 781 782 779 779 767 769 780 778 779 783 783 787 785 783 784 783 782 783 781 784 785 783 782 784 786 787 788 789 788 790 792 793 796 798 801 804 807 810 812 813 815 816 818 820 821 823 825 826 828 830 832 833 834 836 837 838 839 840 841 842 843 844
738 747 735 733 742 729 721 725 724 725 731 737 747 742 725 720 724 740 763 760 754 766 767 769 786 791 792 795 781 776 787 789 785 784 786 788 787 787 786 782 781 782 782 786 787 786 784 783 784 787 791 790 788 790 791 792 795 797 799 803 806 809 810 812 814 815 817 819 820 822 823 825 826 828 830 831 833 834 836 837 838 839 840 841 842 843
730 753 749 732 740 734 722 735 742 730 722 730 737 729 730 745 746 748 766 772 766 767 769 776 783 781 787 792 785 784 788 790 789 786 787 789 790 792 791 786 785 785 784 784 785 788 788 786 786 788 793 792 789 790 792 794 797 798 800 803 805 808 810 812 813 814 816 817 819 821 821 823 825 826 828 830 831 833 834 835 836 838 839 839 840 841
725 749 759 737 731 736 735 746 756 746 731 728 732 728 729 738 741 744 751 756 762 763 768 787 794 788 785 780 780 786 784 783 788 788 788 792 794 796 795 792 791 789 786 783 783 786 785 786 786 786 788 789 789 791 792 795 798 799 802 804 805 808 810 812 812 812 814 815 817 819 820 822 823 825 827 828 830 831 832 834 835 836 837 838 839 840
727 740 758 746 733 742 750 748 746 745 739 737 742 740 735 731 730 736 739 738 749 755 761 787 810 804 787 778 778 781 779 779 783 785 789 792 795 797 798 797 794 791 789 787 787 786 783 782 783 784 785 787 789 791 793 795 796 799 802 803 805 807 809 811 813 812 813 814 816 817 819 821 822 823 825 826 828 830 831 832 833 835 836 836 838 838
738 743 752 752 747 749 747 735 730 733 735 737 741 738 736 736 739 751 754 739 734 745 755 782 815 809 783 777 779 774 774 777 777 783 789 791 795 798 799 799 797 794 792 791 791 790 787 784 784 786 788 789 791 791 793 796 797 800 802 801 803 805 807 812 814 813 813 813 814 816 817 819 821 822 824 825 827 828 829 831 832 833 834 835 836 837
742 750 754 752 746 743 736 728 729 731 731 733 734 730 729 733 740 755 763 750 738 746 757 778 809 807 779 771 774 770 771 773 775 783 788 791 795 798 799 800 800 798 796 795 794 793 792 791 789 790 791 792 793 793 794 796 796 800 801 800 801 803 805 809 810 812 815 815 814 815 817 818 820 821 823 823 825 826 827 829 830 832 833 834 835 836
745 754 762 760 748 739 736 732 731 731 734 739 737 731 730 734 737 743 750 752 750 753 763 785 811 808 781 768 770 771 772 774 777 783 786 791 795 797 801 802 801 802 800 799 798 797 797 796 793 793 794 794 794 794 795 796 796 798 800 800 801 802 805 807 806 810 816 818 815 815 816 818 819 820 821 822 823 824 826 827 828 830 831 832 833 834
757 758 764 773 770 763 760 757 751 744 743 744 738 733 735 737 741 744 744 751 759 754 759 789 814 806 781 771 772 773 774 778 781 783 786 790 793 795 799 802 803 804 803 801 802 801 801 800 797 797 798 798 798 797 797 798 798 798 800 801 801 802 805 808 807 808 812 816 817 817 817 818 819 820 820 822 822 823 825 826 827 828 829 830 831 832
763 763 765 779 788 788 788 781 767 754 749 747 741 737 741 743 747 755 755 762 770 762 762 789 810 801 782 777 778 777 778 783 785 787 788 791 793 795 797 801 804 805 805 805 804 804 804 803 802 800 801 801 801 801 801 801 800 800 801 802 802 805 808 810 809 808 810 814 816 817 817 819 820 820 820 821 822 822 824 824 825 826 827 829 830 830
766 766 765 776 784 783 785 774 754 747 753 757 751 746 748 748 749 757 765 772 775 773 779 790 795 796 791 785 785 785 785 789 791 791 792 792 794 795 797 801 803 804 807 806 805 807 807 806 806 805 805 804 802 802 802 803 802 801 803 803 803 807 811 811 810 809 810 813 814 815 817 819 820 821 821 822 822 822 822 823 824 825 825 827 828 829
772 772 765 770 774 769 768 762 750 750 754 753 752 752 754 754 755 762 768 768 766 779 795 790 781 791 795 787 787 790 789 793 795 793 794 794 794 794 795 798 801 804 806 807 807 808 808 809 810 809 809 807 805 803 802 803 804 802 803 805 805 807 810 811 810 809 809 810 811 813 816 818 820 821 821 822 822 822 822 822 822 823 824 825 826 827
777 777 764 763 768 764 762 761 757 757 755 750 752 758 758 758 762 766 765 759 760 779 795 788 781 790 791 786 788 790 790 794 795 793 794 794 795 796 796 798 801 803 806 808 809 810 810 811 811 812 812 812 811 809 806 806 806 804 805 807 808 808 809 810 810 809 809 810 811 812 814 815 816 816 817 819 820 820 820 820 821 821 822 823 824 825
778 779 767 763 767 766 765 765 761 760 761 760 760 762 762 762 762 761 760 758 762 774 780 780 785 789 787 785 786 786 789 793 794 794 794 795 797 798 799 802 803 805 807 809 810 810 811 811 812 813 814 814 815 815 813 811 809 807 807 808 809 809 808 809 811 811 811 812 812 813 813 814 814 813 814 816 817 817 818 818 819 820 821 821 822 823
779 782 773 771 777 774 767 766 767 766 767 769 767 764 765 767 765 763 763 762 767 775 774 777 789 792 785 784 785 786 789 793 797 799 798 799 799 799 801 805 807 808 808 809 811 812 811 812 813 814 814 814 816 817 816 815 813 810 808 808 809 809 809 810 811 812 813 813 812 813 814 815 816 815 815 816 816 816 816 816 817 819 820 820 820 821
779 782 775 778 790 784 767 768 771 767 768 774 773 768 769 771 770 768 766 765 769 774 776 784 795 794 785 783 787 791 793 796 801 804 804 804 803 802 805 808 810 811 811 811 813 813 813 813 814 815 815 815 816 817 818 818 817 815 813 811 810 809 810 811 812 812 813 813 813 812 813 815 816 816 816 816 816 816 816 816 817 818 819 821 821 821
777 780 777 781 794 785 767 767 770 770 782 788 775 766 767 769 769 767 765 764 765 767 773 784 793 790 784 784 788 792 796 799 802 803 806 808 806 805 808 810 812 813 812 813 814 814 815 815 815 816 817 816 816 817 818 818 818 818 817 816 814 811 810 811 811 812 813 813 814 815 815 816 816 814 814 814 814 815 817 818 817 817 820 823 824 823
779 783 780 778 788 783 767 765 774 788 801 789 762 753 759 763 767 769 766 764 766 768 768 774 782 785 785 786 789 791 793 796 799 801 803 806 806 805 807 810 813 813 813 814 814 815 817 817 817 818 818 817 817 817 818 819 818 819 818 817 816 814 812 811 810 812 813 812 814 815 816 816 815 814 813 812 812 814 816 817 815 816 821 824 825 826
782 786 783 779 783 781 769 774 797 808 796 772 755 752 754 756 760 764 765 763 766 772 773 774 780 783 783 783 785 787 789 791 795 798 801 804 805 805 806 807 810 811 813 814 814 816 818 818 818 819 818 818 818 818 818 818 818 819 819 817 817 816 815 814 813 813 814 813 813 813 813 814 813 813 813 812 812 813 814 814 813 815 817 818 820 822
783 785 783 780 783 785 781 788 804 802 778 764 766 765 761 763 766 770 776 774 770 773 778 781 784 782 781 784 786 789 791 790 792 796 800 802 804 805 806 805 806 810 812 813 814 815 817 818 818 819 819 818 818 818 819 819 818 819 818 818 818 817 817 817 816 816 816 815 815 814 813 813 812 812 812 812 812 812 813 813 812 812 814 814 814 814
784 786 787 787 786 787 787 785 786 787 782 777 776 771 768 771 773 776 785 783 775 774 778 783 787 785 783 785 786 789 792 795 799 801 801 801 802 805 807 806 807 811 812 813 814 815 816 818 818 818 819 818 818 819 819 819 819 818 818 819 819 818 818 818 818 818 818 817 816 816 815 814 813 812 812 812 812 812 812 811 810 810 811 812 811 811
784 787 792 796 789 782 788 788 784 791 794 782 773 769 767 769 770 774 784 785 777 773 775 780 785 785 785 787 788 792 798 805 809 806 800 799 801 804 807 809 810 812 812 814 815 814 816 818 818 818 819 818 818 819 819 818 819 818 819 819 819 819 819 819 820 820 819 818 818 816 816 815 814 813 812 811 811 811 810 809 808 807 808 809 809 810
786 786 789 797 794 785 793 798 792 794 794 779 770 771 770 771 772 778 792 794 781 774 776 779 783 785 786 790 793 797 804 810 812 808 802 801 802 805 808 810 811 813 814 815 815 815 817 818 818 818 818 817 818 819 818 818 818 818 819 820 820 820 820 820 821 821 820 820 819 818 817 816 816 815 815 813 811 810 808 806 806 805 806 807 808 809
792 791 790 798 798 792 796 797 789 789 790 779 774 775 774 773 775 789 808 802 781 776 780 780 784 788 789 793 798 802 808 811 811 809 804 802 805 807 810 812 814 815 816 816 816 818 819 819 819 818 818 818 819 819 818 817 818 818 820 820 820 820 820 820 821 821 821 821 820 819 818 816 815 815 814 813 811 808 806 804 803 804 804 806 808 809
796 794 793 797 796 791 795 797 790 789 787 778 775 776 774 775 784 802 811 797 779 781 783 780 785 792 794 798 802 803 806 807 807 807 805 805 808 810 812 814 816 816 817 818 819 819 819 819 819 819 819 819 819 818 817 817 818 819 819 820 820 820 820 821 821 821 821 821 820 820 818 816 815 814 812 811 810 807 806 803 803 804 805 806 807 808
797 796 794 795 794 790 790 791 790 793 787 776 775 777 777 786 800 804 798 787 783 786 786 784 789 795 798 801 802 803 805 806 805 807 808 810 812 813 814 816 817 818 819 820 820 820 819 819 820 820 820 820 819 819 818 818 818 819 819 819 820 820 820 821 821 821 821 821 820 820 818 817 816 814 812 811 809 808 806 804 804 804 805 806 806 806
790 795 795 791 789 790 791 792 796 800 790 777 779 785 786 794 801 795 789 789 789 790 791 793 794 797 801 803 803 805 807 807 808 811 812 813 814 815 816 817 819 820 821 820 820 820 820 820 821 821 821 820 820 820 819 819 819 819 819 819 819 819 819 819 820 820 820 820 820 819 818 817 816 814 812 811 810 808 807 806 805 805 805 806 805 805
784 790 794 787 782 788 797 797 797 796 785 777 784 793 793 792 791 789 791 794 794 794 796 798 799 801 803 804 806 808 809 810 812 812 813 815 815 816 817 819 820 821 821 820 821 820 821 822 821 821 821 821 821 821 820 820 820 819 819 819 818 818 818 818 818 819 818 818 819 818 818 817 815 814 812 811 810 809 807 806 806 805 804 804 804 804
782 782 788 788 783 785 790 791 788 786 781 779 783 788 790 790 789 789 792 794 795 795 796 798 802 804 804 806 809 810 811 811 812 812 813 815 815 816 818 820 820 821 821 821 822 822 822 822 822 821 822 821 821 821 820 820 820 818 818 818 817 817 817 817 817 816 816 817 817 817 817 816 814 813 812 811 810 808 807 806 805 805 804 804 803 803
777 776 783 788 785 782 782 782 782 782 782 782 782 784 788 791 791 791 793 794 795 796 796 799 802 803 805 809 811 811 812 812 812 813 814 815 816 817 819 820 821 822 822 822 823 823 823 823 822 822 821 821 821 821 820 820 819 818 818 817 817 817 816 815 815 815 815 816 815 815 815 814 813 812 811 810 809 808 807 806 804 804 803 803 802 802
775 777 782 786 787 789 788 782 779 782 784 783 783 785 787 790 791 792 794 795 795 796 797 800 802 804 806 809 810 812 813 812 813 814 815 816 818 818 819 820 822 822 823 823 823 824 823 823 822 822 821 821 821 820 820 820 819 818 818 817 816 816 815 814 814 814 813 814 814 814 814 813 812 811 810 809 808 807 807 805 804 803 802 802 802 801
778 779 782 784 786 788 786 781 779 782 783 782 783 785 786 789 792 792 794 796 797 798 799 801 803 805 806 808 810 812 813 812 813 815 816 817 818 819 820 821 822 822 823 823 823 823 823 822 822 822 821 820 820 820 819 819 818 818 817 816 815 815 814 813 813 812 812 812 812 812 812 812 811 810 809 808 807 807 806 805 804 803 802 801 801 800
782 783 782 783 786 786 784 782 782 784 784 784 784 784 784 787 791 793 795 797 798 800 801 802 804 805 805 806 808 811 813 814 814 815 816 817 818 819 821 821 821 822 823 822 822 823 822 822 822 821 820 819 819 818 818 817 817 816 816 815 815 813 813 812 811 811 810 810 811 811 811 810 810 809 808 808 807 806 805 804 803 802 801 800 800 799
783 787 784 785 791 790 788 788 789 791 792 790 788 787 787 787 788 790 792 795 797 799 799 801 803 804 805 806 807 809 812 813 814 816 818 818 819 820 821 821 822 822 822 822 822 822 821 821 821 820 820 819 818 817 816 815 815 815 814 814 813 812 811 811 810 809 809 808 809 809 809 809 808 808 808 808 807 805 804 803 802 801 800 798 798 797
787 791 790 793 795 791 788 790 792 794 796 793 789 789 789 788 789 790 789 791 793 794 794 796 799 801 803 805 807 809 810 812 814 817 818 818 820 820 821 821 822 821 821 822 821 821 821 820 819 819 818 818 817 816 815 814 813 813 812 812 811 811 810 809 808 807 807 806 806 807 807 808 808 807 807 807 806 804 803 801 800 799 798 797 795 794